QPF
0.00 0.00 0.00 0.00 0.00 0.00 0.00 0.00 0.00 0.00 0.00 0.00 0.00 0.00 0.00 0.00 0.00 0.00 0.00 0.00 0.00 0.00 0.00 0.00 0.00 0.00 0.00 0.00 0.00 0.00 0.00 0.00 0.00 0.00 0.00 0.00 0.00 0.00 0.00 0.00 0.00 0.00 0.00 0.00 0.00
0.00 0.00 0.00 0.00 0.00 0.00 0.00 0.00 0.00 0.00 0.00 0.00 0.00 0.00 0.00 0.00 0.00 0.00 0.00 0.00 0.00 0.00 0.00 0.00 0.00 0.00 0.00 0.00 0.00 0.00 0.00 0.00 0.00 0.00 0.00 0.00 0.00 0.00 0.00 0.00 0.00 0.00 0.00 0.00 0.00
0.00 0.00 0.00 0.00 0.00 0.00 0.00 0.00 0.00 0.00 0.00 0.00 0.00 0.00 0.00 0.00 0.00 0.00 0.00 0.00 0.00 0.00 0.00 0.00 0.00 0.00 0.00 0.00 0.00 0.00 0.00 0.00 0.00 0.00 0.00 0.00 0.00 0.00 0.00 0.00 0.00 0.00 0.00 0.00 0.00
0.00 0.00 0.00 0.00 0.00 0.00 0.00 0.00 0.00 0.00 0.00 0.00 0.00 0.00 0.00 0.00 0.00 0.00 0.00 0.00 0.00 0.00 0.00 0.00 0.00 0.00 0.00 0.00 0.00 0.00 0.00 0.00 0.00 0.00 0.00 0.00 0.00 0.00 0.00 0.00 0.00 0.00 0.00 0.00 0.00
0.00 0.00 0.00 0.00 0.00 0.00 0.00 0.00 0.00 0.00 0.00 0.00 0.00 0.00 0.00 0.00 0.00 0.00 0.00 0.00 0.00 0.00 0.00 0.00 0.00 0.00 0.00 0.00 0.00 0.00 0.00 0.00 0.00 0.00 0.00 0.00 0.00 0.00 0.00 0.00 0.00 0.00 0.00 0.00 0.00
0.00 0.00 0.00 0.00 0.00 0.00 0.00 0.00 0.00 0.00 0.00 0.00 0.00 0.00 0.00 0.00 0.00 0.00 0.00 0.00 0.00 0.00 0.00 0.00 0.00 0.00 0.00 0.00 0.00 0.00 0.00 0.00 0.00 0.00 0.00 0.00 0.00 0.00 0.00 0.00 0.00 0.00 0.00 0.00 0.00
0.00 0.00 0.00 0.00 0.00 0.00 0.00 0.00 0.00 0.00 0.00 0.00 0.00 0.00 0.00 0.00 0.00 0.00 0.00 0.00 0.00 0.00 0.00 0.00 0.00 0.00 0.00 0.00 0.00 0.00 0.00 0.00 0.00 0.00 0.00 0.00 0.00 0.00 0.00 0.00 0.00 0.00 0.00 0.00 0.00
0.00 0.00 0.00 0.00 0.00 0.00 0.00 0.00 0.00 0.00 0.00 0.00 0.00 0.00 0.00 0.00 0.00 0.00 0.00 0.00 0.00 0.00 0.00 0.00 0.00 0.00 0.00 0.00 0.00 0.00 0.00 0.00 0.00 0.00 0.00 0.00 0.00 0.00 0.00 0.00 0.00 0.00 0.00 0.00 0.00
0.00 0.00 0.00 0.00 0.00 0.00 0.00 0.00 0.00 0.00 0.00 0.00 0.00 0.00 0.00 0.00 0.00 0.00 0.00 0.00 0.00 0.00 0.00 0.00 0.00 0.00 0.00 0.00 0.00 0.00 0.00 0.00 0.00 0.00 0.00 0.00 0.00 0.00 0.00 0.00 0.00 0.00 0.00 0.00 0.00
0.00 0.00 0.00 0.00 0.00 0.00 0.00 0.00 0.00 0.00 0.00 0.00 0.00 0.00 0.00 0.00 0.00 0.00 0.00 0.00 0.00 0.00 0.00 0.00 0.00 0.00 0.00 0.00 0.00 0.00 0.00 0.00 0.00 0.00 0.00 0.00 0.00 0.00 0.00 0.00 0.00 0.00 0.00 0.00 0.00
0.00 0.00 0.00 0.00 0.00 0.00 0.00 0.00 0.00 0.00 0.00 0.00 0.00 0.00 0.00 0.00 0.00 0.00 0.00 0.00 0.00 0.00 0.00 0.00 0.00 0.00 0.00 0.00 0.00 0.00 0.00 0.00 0.00 0.00 0.00 0.00 0.00 0.00 0.00 0.00 0.00 0.00 0.00 0.00 0.00
0.00 0.00 0.00 0.00 0.00 0.00 0.00 0.00 0.00 0.00 0.00 0.00 0.00 0.00 0.00 0.00 0.00 0.00 0.00 0.00 0.00 0.00 0.00 0.00 0.00 0.00 0.00 0.00 0.00 0.00 0.00 0.00 0.00 0.00 0.00 0.00 0.00 0.00 0.00 0.00 0.00 0.00 0.00 0.00 0.00
0.00 0.00 0.00 0.00 0.00 0.00 0.00 0.00 0.00 0.00 0.00 0.00 0.00 0.00 0.00 0.00 0.00 0.00 0.00 0.00 0.00 0.00 0.00 0.00 0.00 0.00 0.00 0.00 0.00 0.00 0.00 0.00 0.00 0.00 0.00 0.00 0.00 0.00 0.00 0.00 0.00 0.00 0.00 0.00 0.00
0.00 0.00 0.00 0.00 0.00 0.00 0.00 0.00 0.00 0.00 0.00 0.00 0.00 0.00 0.00 0.00 0.00 0.00 0.00 0.00 0.00 0.00 0.00 0.00 0.00 0.00 0.00 0.00 0.00 0.00 0.00 0.00 0.00 0.00 0.00 0.00 0.00 0.00 0.00 0.00 0.00 0.00 0.00 0.00 0.00
0.00 0.00 0.00 0.00 0.00 0.00 0.00 0.00 0.00 0.00 0.00 0.00 0.00 0.00 0.00 0.00 0.00 0.00 0.00 0.00 0.00 0.00 0.00 0.00 0.00 0.00 0.00 0.00 0.00 0.00 0.00 0.00 0.00 0.00 0.00 0.00 0.00 0.00 0.00 0.00 0.00 0.00 0.00 0.00 0.00
0.00 0.00 0.00 0.00 0.00 0.00 0.00 0.00 0.00 0.00 0.00 0.00 0.00 0.00 0.00 0.00 0.00 0.00 0.00 0.00 0.00 0.00 0.00 0.00 0.00 0.00 0.00 0.00 0.00 0.00 0.00 0.00 0.00 0.00 0.00 0.00 0.00 0.00 0.00 0.00 0.00 0.00 0.00 0.00 0.00
0.00 0.00 0.00 0.00 0.00 0.00 0.00 0.00 0.00 0.00 0.00 0.00 0.00 0.00 0.00 0.00 0.00 0.00 0.00 0.00 0.00 0.00 0.00 0.00 0.00 0.00 0.00 0.00 0.00 0.00 0.01 0.02 0.01 0.00 0.00 0.00 0.00 0.00 0.00 0.00 0.00 0.00 0.00 0.00 0.00
0.00 0.00 0.00 0.00 0.00 0.00 0.00 0.00 0.00 0.00 0.00 0.00 0.00 0.00 0.00 0.00 0.00 0.00 0.00 0.00 0.00 0.00 0.00 0.00 0.00 0.00 0.00 0.00 0.00 0.00 0.02 0.04 0.03 0.00 0.00 0.00 0.00 0.00 0.00 0.00 0.00 0.00 0.00 0.00 0.00
0.00 0.00 0.00 0.00 0.00 0.00 0.00 0.00 0.00 0.00 0.00 0.00 0.00 0.00 0.00 0.00 0.00 0.00 0.00 0.00 0.00 0.00 0.00 0.00 0.01 0.00 0.00 0.00 0.00 0.00 0.01 0.01 0.02 0.01 0.01 0.00 0.00 0.00 0.00 0.00 0.00 0.00 0.00 0.00 0.00
0.00 0.00 0.00 0.00 0.00 0.00 0.00 0.00 0.00 0.00 0.00 0.00 0.00 0.00 0.00 0.00 0.00 0.00 0.00 0.00 0.00 0.00 0.00 0.00 0.01 0.00 0.00 0.00 0.00 0.00 0.00 0.01 0.03 0.03 0.02 0.00 0.00 0.00 0.00 0.00 0.00 0.00 0.00 0.00 0.00
0.00 0.00 0.00 0.00 0.00 0.00 0.00 0.00 0.00 0.00 0.00 0.00 0.00 0.00 0.00 0.00 0.00 0.00 0.00 0.00 0.00 0.00 0.00 0.00 0.03 0.01 0.00 0.00 0.00 0.00 0.00 0.02 0.04 0.02 0.02 0.01 0.00 0.00 0.00 0.00 0.00 0.00 0.00 0.00 0.00
0.00 0.00 0.00 0.00 0.00 0.00 0.00 0.00 0.00 0.00 0.00 0.00 0.00 0.00 0.00 0.00 0.00 0.00 0.00 0.00 0.00 0.00 0.00 0.01 0.06 0.04 0.00 0.00 0.00 0.00 0.00 0.01 0.06 0.01 0.01 0.01 0.00 0.00 0.00 0.00 0.00 0.00 0.00 0.00 0.00
0.00 0.00 0.00 0.00 0.00 0.00 0.00 0.00 0.00 0.00 0.00 0.00 0.00 0.00 0.00 0.00 0.00 0.00 0.00 0.00 0.00 0.00 0.03 0.05 0.04 0.04 0.00 0.01 0.01 0.00 0.01 0.00 0.01 0.02 0.01 0.02 0.00 0.00 0.00 0.00 0.01 0.02 0.00 0.00 0.00
0.00 0.00 0.00 0.00 0.00 0.00 0.00 0.00 0.00 0.00 0.00 0.00 0.00 0.00 0.00 0.00 0.00 0.00 0.00 0.00 0.00 0.00 0.00 0.06 0.02 0.05 0.02 0.01 0.00 0.00 0.00 0.00 0.00 0.02 0.01 0.01 0.00 0.00 0.00 0.00 0.01 0.00 0.00 0.00 0.00
0.00 0.00 0.00 0.00 0.00 0.00 0.00 0.00 0.00 0.00 0.00 0.00 0.00 0.00 0.00 0.00 0.00 0.00 0.00 0.00 0.00 0.00 0.00 0.03 0.01 0.03 0.01 0.00 0.00 0.00 0.00 0.00 0.00 0.00 0.00 0.00 0.00 0.00 0.00 0.00 0.00 0.00 0.00 0.00 0.00
0.00 0.00 0.00 0.00 0.00 0.00 0.00 0.00 0.00 0.00 0.00 0.00 0.00 0.00 0.00 0.00 0.00 0.00 0.00 0.00 0.00 0.00 0.02 0.05 0.02 0.01 0.00 0.00 0.00 0.00 0.00 0.00 0.00 0.00 0.00 0.00 0.00 0.00 0.00 0.00 0.00 0.00 0.00 0.00 0.00
0.00 0.00 0.00 0.00 0.00 0.00 0.00 0.00 0.00 0.00 0.00 0.00 0.00 0.00 0.00 0.00 0.00 0.00 0.00 0.00 0.00 0.00 0.01 0.01 0.02 0.01 0.00 0.00 0.00 0.00 0.00 0.00 0.00 0.00 0.00 0.00 0.00 0.00 0.00 0.00 0.00 0.00 0.00 0.00 0.00
MSLP
1020.13 1019.69 1019.30 1018.90 1018.53 1018.21 1017.87 1017.45 1016.98 1016.49 1015.97 1015.57 1015.21 1014.87 1014.57 1014.24 1013.68 1012.25 1011.60 1010.94 1010.61 1010.43 1010.00 1009.13 1008.53 1007.70 1007.31 1006.87 1006.00 1005.37 1004.53 1003.09 1002.24 1001.09 999.97 998.87 998.10 997.57 997.38 996.92 996.73 996.55 996.58 996.84 997.11
1020.05 1019.55 1019.09 1018.71 1018.34 1017.93 1017.51 1017.11 1016.68 1016.23 1015.74 1015.34 1014.90 1014.59 1014.40 1014.05 1013.04 1010.98 1010.68 1010.59 1010.35 1010.15 1009.63 1008.25 1007.41 1006.97 1006.49 1005.94 1005.76 1004.92 1003.39 1002.14 1001.76 1000.95 1000.04 999.46 998.49 997.75 997.58 997.23 996.81 996.76 996.43 996.91 997.61
1020.04 1019.52 1019.06 1018.62 1018.17 1017.74 1017.38 1017.00 1016.56 1016.09 1015.56 1015.03 1014.63 1014.24 1014.07 1013.84 1011.64 1009.99 1010.44 1010.11 1009.92 1010.17 1009.49 1008.34 1007.36 1006.67 1005.68 1005.31 1004.79 1004.14 1002.10 1002.12 1001.09 1000.45 1000.10 999.56 999.02 998.61 998.26 997.57 996.81 996.57 996.61 996.88 997.33
1020.18 1019.64 1019.10 1018.58 1018.08 1017.63 1017.20 1016.76 1016.34 1015.87 1015.40 1014.96 1014.46 1014.05 1013.68 1013.22 1009.96 1009.51 1009.90 1009.84 1009.83 1009.71 1008.76 1007.50 1006.69 1006.26 1005.66 1004.74 1004.11 1003.38 1002.56 1002.03 1000.98 1000.42 1000.01 999.30 998.90 998.52 998.72 998.24 997.39 996.90 996.62 996.38 996.99
1020.23 1019.70 1019.08 1018.47 1017.91 1017.34 1016.84 1016.42 1015.99 1015.50 1015.07 1014.75 1014.29 1013.91 1013.05 1010.93 1008.42 1009.00 1009.21 1009.26 1009.01 1008.27 1007.57 1006.71 1006.12 1005.66 1004.84 1004.30 1003.75 1002.35 1001.83 1001.33 1000.84 1000.56 1000.37 1000.06 999.14 998.78 998.53 998.70 998.18 997.59 996.89 996.46 996.32
1020.16 1019.63 1019.05 1018.44 1017.82 1017.21 1016.66 1016.16 1015.63 1015.02 1014.46 1014.26 1014.14 1013.97 1012.76 1009.36 1007.91 1007.94 1008.11 1007.76 1007.43 1007.41 1007.02 1006.62 1006.20 1005.77 1004.98 1004.13 1002.92 1002.46 1001.64 1000.86 1000.27 999.74 999.70 999.66 999.26 999.08 997.95 998.16 998.38 997.98 997.38 996.83 997.02
1020.02 1019.47 1018.88 1018.30 1017.66 1017.02 1016.40 1015.90 1015.35 1014.76 1014.07 1013.82 1013.80 1013.25 1011.07 1008.29 1007.86 1007.62 1007.30 1007.23 1007.19 1007.42 1007.16 1006.74 1006.52 1006.34 1005.36 1004.35 1003.04 1002.96 1001.88 1000.74 999.77 999.59 998.92 999.36 998.60 997.71 998.17 998.21 997.85 997.79 997.54 997.00 996.90
1019.86 1019.31 1018.72 1018.05 1017.40 1016.81 1016.14 1015.49 1014.94 1014.43 1013.69 1013.38 1013.38 1012.51 1009.63 1007.85 1007.82 1007.32 1007.26 1006.79 1006.66 1006.74 1006.60 1006.66 1006.80 1006.45 1005.93 1005.12 1003.78 1003.20 1002.19 1000.44 999.29 999.88 998.55 999.72 997.38 996.90 997.78 997.91 997.63 997.84 997.59 997.08 996.85
1019.66 1019.07 1018.43 1017.71 1017.06 1016.44 1015.78 1015.12 1014.57 1013.86 1013.48 1013.29 1012.89 1011.45 1007.94 1007.97 1007.60 1007.52 1007.32 1006.84 1006.76 1006.60 1006.32 1006.17 1006.40 1006.20 1005.62 1004.77 1003.76 1002.75 1001.58 1000.68 999.63 998.85 998.40 998.72 997.13 996.72 997.23 997.38 997.12 997.15 997.16 997.06 996.78
1019.39 1018.78 1018.18 1017.51 1016.70 1015.95 1015.26 1014.23 1013.63 1013.69 1013.10 1012.28 1011.44 1010.27 1008.00 1007.09 1007.41 1007.56 1006.76 1006.77 1006.75 1006.45 1006.11 1005.38 1005.34 1005.14 1004.58 1004.09 1002.54 1001.90 1000.89 999.83 998.86 998.69 998.46 997.93 996.29 996.12 996.58 996.84 996.38 996.49 996.42 996.30 996.32
1019.14 1018.47 1017.78 1017.11 1016.40 1015.77 1014.89 1012.68 1013.20 1012.80 1011.78 1009.50 1008.54 1007.67 1007.44 1007.34 1007.58 1007.02 1006.53 1006.87 1006.37 1006.09 1005.52 1004.84 1004.63 1003.87 1003.31 1002.86 1002.26 1001.99 1001.40 1000.28 999.52 999.16 998.74 997.86 996.32 995.18 995.04 995.37 995.40 995.79 995.73 995.58 995.50
1019.09 1018.23 1017.37 1016.65 1015.93 1015.33 1015.14 1012.11 1011.51 1011.31 1009.96 1008.61 1007.76 1007.56 1007.53 1007.65 1007.32 1006.49 1006.66 1006.91 1006.57 1005.98 1005.49 1005.00 1004.05 1003.63 1003.40 1003.07 1002.95 1002.86 1002.30 1001.28 1000.72 1000.38 1000.04 998.61 996.89 995.59 995.03 994.43 994.25 994.51 994.70 994.98 994.93
1018.78 1017.88 1016.98 1016.28 1015.59 1014.64 1012.69 1011.50 1011.23 1010.80 1010.04 1007.29 1007.15 1006.97 1006.84 1007.10 1006.76 1006.50 1006.78 1006.86 1006.55 1006.10 1005.49 1005.06 1004.65 1004.34 1004.06 1003.88 1003.58 1003.22 1002.75 1002.12 1001.66 1001.34 1000.88 999.62 998.13 996.46 995.42 994.73 994.40 993.90 993.74 993.73 994.11
1018.57 1017.65 1016.81 1016.04 1015.66 1011.86 1011.05 1011.19 1010.78 1011.00 1009.63 1007.14 1006.92 1006.46 1006.67 1006.58 1006.23 1006.36 1006.61 1007.02 1006.80 1006.36 1006.01 1005.51 1005.17 1004.67 1004.31 1003.95 1004.11 1003.25 1003.05 1002.43 1002.05 1001.62 1000.58 1000.38 998.07 997.20 996.11 994.98 994.65 994.15 993.79 993.33 993.18
1018.21 1017.29 1016.49 1016.33 1014.29 1011.46 1011.48 1011.11 1011.20 1011.11 1008.63 1006.67 1006.13 1006.78 1006.54 1006.47 1006.18 1005.66 1006.29 1006.92 1006.69 1006.40 1006.36 1005.34 1004.83 1004.55 1004.44 1004.40 1004.32 1003.54 1003.26 1002.88 1002.39 1001.71 1001.17 1000.37 999.25 996.81 996.92 994.81 994.30 993.76 993.58 993.24 992.87
1017.87 1017.08 1016.41 1014.67 1013.89 1011.60 1011.20 1011.31 1011.15 1010.28 1007.26 1006.06 1006.03 1005.95 1005.72 1005.32 1005.32 1005.61 1005.79 1005.91 1005.55 1005.51 1005.52 1004.83 1004.54 1004.67 1005.25 1005.60 1005.36 1004.74 1004.24 1003.69 1002.99 1002.18 1000.71 1000.00 999.35 997.10 996.39 995.33 994.35 993.29 992.60 992.23 992.21
1017.32 1016.57 1016.36 1014.46 1012.08 1011.54 1011.59 1010.91 1010.11 1008.08 1006.70 1005.93 1005.95 1006.02 1005.85 1005.30 1005.32 1005.37 1005.68 1005.08 1004.69 1004.48 1004.65 1004.55 1004.45 1005.13 1006.36 1006.34 1005.85 1004.67 1004.39 1004.14 1002.84 1001.82 1000.10 999.81 998.81 996.92 996.11 995.42 994.36 993.40 992.33 991.51 991.18
1016.86 1015.79 1014.52 1013.72 1012.31 1012.09 1011.80 1010.86 1009.36 1007.38 1006.50 1006.76 1006.86 1006.57 1005.46 1004.96 1005.42 1005.51 1004.97 1004.53 1004.31 1004.78 1004.92 1004.93 1004.92 1005.62 1006.35 1006.29 1005.78 1004.94 1004.87 1005.23 1003.98 1002.19 1000.50 999.08 997.65 996.60 996.39 995.63 994.33 993.30 992.13 991.48 990.97
1016.64 1013.93 1013.81 1012.92 1012.71 1012.50 1011.94 1010.17 1008.39 1007.84 1007.99 1007.98 1007.66 1006.18 1005.52 1005.22 1005.40 1005.13 1004.67 1004.62 1005.09 1005.70 1005.84 1005.64 1005.23 1005.33 1005.09 1004.90 1005.44 1004.39 1004.18 1004.25 1004.72 1004.00 1001.67 999.85 998.19 997.06 996.63 995.61 994.74 993.15 992.11 991.05 991.04
1016.61 1014.12 1012.16 1012.41 1012.46 1012.52 1011.72 1010.08 1008.62 1008.17 1008.60 1008.71 1008.19 1007.18 1006.68 1006.43 1006.05 1005.64 1005.39 1005.33 1005.63 1006.05 1006.19 1006.32 1005.67 1005.97 1005.15 1004.70 1005.01 1004.51 1003.96 1003.43 1003.60 1003.61 1002.15 1000.15 998.56 997.34 996.91 997.08 995.05 993.73 992.24 991.56 990.81
1015.52 1012.66 1012.25 1012.23 1012.38 1012.08 1010.93 1009.30 1008.78 1009.16 1009.49 1009.46 1008.82 1008.58 1008.12 1007.68 1007.27 1006.95 1006.53 1006.16 1006.58 1006.65 1007.11 1006.92 1006.93 1006.33 1006.08 1004.65 1003.76 1003.44 1003.16 1003.49 1005.07 1004.61 1002.60 1000.71 998.85 998.98 999.58 999.99 999.19 996.61 993.02 991.53 990.82
1015.22 1012.11 1012.01 1012.25 1012.00 1011.35 1010.60 1009.88 1009.90 1009.40 1009.57 1009.37 1009.38 1009.22 1009.10 1008.82 1008.25 1007.95 1007.41 1007.01 1007.33 1007.30 1007.52 1008.05 1008.34 1007.26 1005.85 1004.52 1004.13 1004.36 1004.11 1004.82 1004.06 1003.16 1002.17 1001.27 998.43 999.92 1001.61 1001.23 1001.02 999.13 994.14 993.03 991.56
1015.50 1012.61 1011.83 1011.85 1011.32 1011.35 1011.00 1010.37 1009.71 1009.61 1009.89 1009.73 1009.53 1009.80 1009.88 1009.53 1008.97 1008.38 1008.11 1007.86 1007.75 1008.48 1008.83 1009.65 1008.72 1007.86 1005.94 1004.32 1005.97 1005.47 1004.14 1003.63 1002.89 1002.57 1001.49 1001.55 999.85 1000.84 1002.17 1003.31 1002.16 1000.77 997.53 994.01 992.07
1016.26 1012.67 1011.44 1011.27 1011.52 1011.73 1011.22 1010.97 1010.02 1009.72 1009.89 1010.20 1010.32 1010.32 1010.14 1009.80 1009.32 1008.55 1007.92 1007.75 1008.08 1008.86 1009.21 1009.55 1009.22 1008.74 1007.42 1006.26 1006.03 1005.91 1004.31 1003.17 1002.34 1001.64 999.75 999.69 1000.08 1000.42 1002.45 1003.11 1002.60 1001.44 999.06 994.16 992.32
1016.15 1014.33 1014.44 1012.93 1012.60 1012.76 1012.07 1011.43 1010.58 1010.05 1010.15 1010.07 1010.09 1010.13 1010.08 1010.07 1009.45 1008.86 1008.06 1007.55 1007.76 1008.16 1008.71 1009.39 1009.17 1008.47 1007.26 1006.03 1004.81 1003.57 1002.65 1000.99 1000.33 999.98 999.04 998.73 998.64 998.76 999.71 1000.73 1001.35 1000.08 997.12 994.15 992.28
1017.88 1017.43 1016.48 1015.24 1013.84 1013.06 1011.91 1011.49 1011.22 1010.95 1011.71 1011.32 1011.24 1010.44 1010.09 1009.89 1009.65 1008.14 1007.52 1007.53 1007.60 1007.98 1008.61 1009.46 1008.94 1008.22 1006.65 1005.69 1004.32 1002.53 1001.25 999.95 998.81 998.71 998.23 997.62 997.42 997.32 996.86 997.66 998.49 997.03 995.33 993.70 992.55
1019.20 1018.93 1018.59 1016.32 1014.12 1012.81 1012.09 1011.98 1012.07 1012.24 1012.12 1011.87 1011.66 1011.34 1010.87 1009.87 1009.29 1008.07 1007.63 1007.38 1007.38 1007.79 1008.59 1010.00 1009.56 1008.74 1006.43 1005.46 1003.71 1002.15 1000.83 1000.06 999.43 998.62 999.07 998.51 998.23 998.18 997.35 996.74 996.04 994.80 994.22 993.18 992.62
Thickness
5590 5592 5594 5595 5597 5599 5600 5602 5606 5610 5616 5620 5624 5630 5635 5640 5647 5663 5667 5681 5687 5693 5700 5706 5713 5721 5724 5723 5737 5743 5717 5722 5740 5753 5772 5802 5800 5820 5827 5818 5832 5842 5842 5852 5860
5586 5589 5592 5593 5595 5597 5600 5603 5606 5610 5615 5618 5623 5627 5631 5636 5647 5665 5675 5677 5683 5688 5692 5701 5705 5713 5711 5719 5721 5720 5719 5733 5762 5767 5768 5784 5794 5804 5802 5809 5818 5828 5847 5850 5851
5582 5585 5587 5590 5593 5595 5598 5601 5604 5608 5613 5618 5622 5627 5629 5633 5652 5669 5670 5675 5679 5679 5686 5697 5703 5704 5706 5715 5718 5721 5722 5745 5760 5771 5775 5775 5782 5794 5788 5788 5813 5818 5832 5838 5843
5578 5580 5583 5586 5589 5592 5595 5598 5602 5606 5610 5615 5620 5624 5628 5634 5657 5669 5668 5671 5673 5676 5683 5691 5696 5691 5691 5697 5716 5706 5729 5737 5755 5764 5762 5764 5782 5777 5780 5789 5813 5823 5838 5842 5831
5574 5576 5580 5583 5586 5590 5594 5597 5600 5605 5609 5612 5617 5621 5631 5646 5662 5667 5668 5670 5674 5681 5683 5686 5687 5691 5688 5699 5705 5712 5727 5737 5745 5749 5749 5758 5761 5766 5775 5793 5808 5813 5821 5830 5831
5571 5573 5576 5580 5584 5587 5591 5595 5599 5605 5610 5612 5613 5615 5625 5642 5667 5670 5670 5675 5678 5677 5679 5682 5681 5688 5686 5692 5702 5715 5720 5728 5738 5745 5748 5741 5749 5758 5780 5793 5791 5796 5803 5814 5813
5570 5571 5574 5577 5581 5586 5590 5593 5597 5602 5608 5610 5611 5616 5630 5647 5662 5665 5670 5670 5673 5670 5665 5676 5678 5672 5680 5680 5707 5700 5695 5713 5729 5736 5739 5743 5729 5744 5776 5781 5780 5786 5792 5805 5808
5569 5571 5573 5576 5580 5583 5588 5593 5597 5600 5605 5608 5608 5615 5627 5655 5656 5660 5663 5665 5671 5670 5669 5671 5670 5666 5664 5676 5682 5678 5687 5687 5729 5722 5741 5719 5709 5756 5769 5764 5766 5773 5783 5793 5800
5570 5571 5573 5575 5579 5583 5587 5592 5595 5600 5602 5603 5608 5615 5631 5649 5645 5651 5654 5651 5656 5660 5663 5667 5660 5653 5658 5654 5658 5673 5661 5675 5697 5728 5724 5709 5711 5752 5762 5756 5756 5765 5773 5780 5791
5570 5572 5574 5576 5580 5584 5589 5596 5599 5598 5602 5607 5613 5611 5632 5635 5641 5642 5653 5649 5642 5645 5646 5652 5648 5643 5650 5647 5643 5658 5667 5683 5687 5712 5711 5703 5717 5742 5749 5746 5751 5755 5763 5771 5778
5569 5573 5575 5578 5581 5584 5589 5605 5603 5600 5603 5618 5625 5628 5629 5637 5637 5635 5644 5636 5638 5636 5627 5642 5632 5632 5645 5654 5662 5655 5654 5662 5682 5695 5683 5687 5706 5731 5749 5745 5745 5749 5755 5763 5770
5567 5571 5576 5580 5583 5585 5585 5606 5606 5606 5603 5623 5628 5626 5627 5626 5615 5628 5635 5617 5617 5612 5624 5624 5621 5638 5642 5643 5637 5631 5628 5640 5654 5665 5658 5671 5686 5718 5730 5737 5749 5747 5750 5756 5765
5566 5571 5576 5580 5583 5590 5602 5605 5607 5609 5597 5625 5626 5622 5622 5622 5613 5616 5619 5612 5607 5605 5611 5605 5613 5623 5619 5617 5614 5616 5614 5621 5622 5635 5640 5654 5652 5686 5712 5723 5734 5743 5752 5759 5759
5562 5568 5573 5578 5581 5610 5607 5606 5607 5602 5589 5612 5613 5620 5619 5620 5608 5622 5619 5604 5597 5591 5596 5596 5605 5603 5604 5604 5601 5595 5616 5616 5612 5611 5606 5635 5620 5659 5690 5703 5713 5725 5736 5748 5758
5558 5565 5571 5572 5587 5602 5600 5603 5599 5593 5580 5614 5615 5621 5615 5605 5608 5610 5610 5593 5581 5583 5583 5583 5587 5586 5587 5590 5588 5589 5599 5596 5600 5600 5599 5609 5607 5649 5668 5683 5697 5713 5725 5734 5746
5557 5561 5566 5579 5583 5598 5599 5596 5592 5576 5581 5607 5612 5605 5604 5608 5605 5601 5596 5597 5593 5579 5579 5582 5596 5585 5570 5570 5572 5580 5576 5579 5585 5588 5577 5605 5602 5622 5647 5665 5684 5705 5721 5731 5739
5559 5561 5560 5572 5587 5593 5591 5589 5577 5582 5612 5604 5599 5599 5595 5593 5593 5590 5580 5582 5578 5573 5573 5581 5582 5574 5558 5550 5559 5571 5564 5541 5560 5571 5576 5602 5599 5614 5651 5659 5673 5685 5706 5726 5738
5560 5565 5570 5573 5583 5584 5581 5576 5566 5598 5602 5601 5591 5589 5589 5596 5586 5582 5581 5580 5593 5579 5567 5554 5546 5556 5554 5545 5543 5558 5556 5533 5532 5560 5579 5607 5592 5614 5626 5640 5662 5682 5701 5715 5723
5560 5577 5572 5577 5576 5575 5569 5566 5578 5585 5585 5576 5577 5585 5588 5592 5583 5582 5586 5580 5575 5569 5550 5545 5546 5563 5565 5566 5555 5559 5553 5561 5531 5538 5563 5584 5599 5614 5627 5640 5653 5673 5694 5705 5709
5559 5572 5583 5578 5575 5568 5562 5562 5579 5586 5577 5569 5558 5575 5567 5571 5571 5572 5571 5577 5564 5563 5560 5547 5532 5546 5553 5560 5553 5555 5570 5558 5560 5538 5542 5572 5586 5598 5619 5607 5644 5667 5683 5692 5706
5568 5583 5580 5577 5572 5563 5557 5573 5576 5572 5564 5554 5554 5552 5555 5554 5557 5553 5555 5564 5557 5552 5547 5542 5530 5530 5537 5547 5554 5561 5565 5565 5528 5533 5541 5554 5576 5603 5584 5578 5583 5617 5680 5695 5696
5570 5580 5582 5575 5561 5564 5560 5566 5559 5561 5560 5556 5552 5548 5542 5543 5543 5541 5542 5549 5551 5547 5532 5531 5514 5512 5529 5553 5556 5543 5546 5530 5538 5543 5557 5554 5577 5576 5554 5562 5571 5584 5643 5674 5684
5569 5581 5583 5574 5558 5553 5558 5558 5561 5554 5547 5545 5543 5541 5538 5533 5529 5536 5536 5545 5544 5530 5518 5508 5516 5505 5525 5551 5522 5521 5539 5548 5556 5550 5545 5536 5560 5567 5547 5543 5559 5564 5602 5648 5678
5562 5576 5581 5576 5569 5555 5550 5545 5548 5554 5545 5539 5533 5532 5529 5527 5532 5530 5535 5541 5537 5525 5521 5512 5510 5503 5505 5517 5518 5503 5529 5544 5551 5545 5561 5561 5555 5564 5531 5537 5550 5563 5585 5640 5668
5565 5566 5554 5554 5550 5541 5543 5541 5540 5539 5541 5539 5532 5528 5525 5515 5521 5520 5532 5537 5536 5532 5523 5510 5504 5512 5519 5526 5533 5539 5545 5563 5561 5562 5562 5569 5572 5574 5558 5555 5556 5566 5590 5624 5657
5546 5538 5537 5538 5545 5540 5542 5537 5531 5531 5516 5514 5512 5522 5524 5516 5515 5523 5534 5531 5527 5529 5519 5510 5508 5516 5522 5528 5533 5540 5556 5568 5581 5578 5580 5584 5582 5593 5596 5579 5576 5595 5612 5631 5649
5533 5526 5516 5529 5543 5545 5540 5533 5523 5516 5512 5510 5509 5506 5504 5515 5520 5530 5533 5534 5532 5526 5518 5494 5502 5507 5520 5528 5537 5537 5556 5559 5561 5572 5557 5559 5567 5576 5582 5586 5593 5606 5617 5633 5648